Time,TemperatureF,DewpointF,PressureIn,WindDirection,WindDirectionDegrees,WindSpeedMPH,WindSpeedGustMPH,Humidity,HourlyPrecipIn,Conditions,Clouds,dailyrainin,SoftwareType,DateUTC
2013-02-03 00:00:00,42.1,32.3,30.06,North,0,3.4,3.4,68,0.00,,,0.00,WUHU216HW,2013-02-03 06:00:00,
2013-02-03 00:30:00,42.5,32.3,30.07,NW,315,2.7,2.7,67,0.00,,,0.00,WUHU216HW,2013-02-03 06:30:00,
2013-02-03 01:00:00,41.4,30.9,30.07,NW,315,4.0,4.0,66,0.00,,,0.00,WUHU216HW,2013-02-03 07:00:00,
2013-02-03 01:30:00,40.0,30.6,30.07,NW,315,3.4,3.4,69,0.00,,,0.00,WUHU216HW,2013-02-03 07:30:00,
2013-02-03 02:00:00,39.6,29.4,30.07,NW,315,3.6,3.6,67,0.00,,,0.00,WUHU216HW,2013-02-03 08:00:00,
2013-02-03 02:30:00,39.1,29.7,30.07,NNW,338,4.7,4.7,69,0.00,,,0.00,WUHU216HW,2013-02-03 08:30:00,
2013-02-03 03:00:00,38.2,29.6,30.08,NNW,338,3.8,3.8,71,0.00,,,0.00,WUHU216HW,2013-02-03 09:00:00,
2013-02-03 03:30:00,37.8,28.5,30.08,NW,315,6.9,6.9,69,0.00,,,0.00,WUHU216HW,2013-02-03 09:30:00,
2013-02-03 04:00:00,37.4,28.3,30.10,WNW,293,3.6,3.6,69,0.00,,,0.00,WUHU216HW,2013-02-03 10:00:00,
2013-02-03 04:30:00,36.9,27.7,30.09,North,0,4.3,4.3,69,0.00,,,0.00,WUHU216HW,2013-02-03 10:30:00,
2013-02-03 05:00:00,35.6,26.5,30.10,NNW,338,6.9,6.9,69,0.00,,,0.00,WUHU216HW,2013-02-03 11:00:00,
2013-02-03 05:30:00,35.3,25.7,30.12,NNW,338,6.0,6.0,68,0.00,,,0.00,WUHU216HW,2013-02-03 11:30:00,
2013-02-03 06:00:00,34.6,25.4,30.13,NW,315,6.3,6.3,69,0.00,,,0.00,WUHU216HW,2013-02-03 12:00:00,
2013-02-03 06:30:00,33.1,24.0,30.13,West,270,3.4,3.4,69,0.00,,,0.00,WUHU216HW,2013-02-03 12:30:00,
2013-02-03 07:00:00,33.3,23.1,30.15,NNW,338,3.4,3.4,66,0.00,,,0.00,WUHU216HW,2013-02-03 13:00:00,
2013-02-03 07:30:00,32.9,21.3,30.16,NNW,338,3.4,3.4,62,0.00,,,0.00,WUHU216HW,2013-02-03 13:30:00,
2013-02-03 08:00:00,33.8,21.0,30.17,NNW,338,3.6,3.6,59,0.00,,,0.00,WUHU216HW,2013-02-03 14:00:00,
2013-02-03 08:30:00,34.6,18.7,30.20,West,270,8.7,8.7,52,0.00,,,0.00,WUHU216HW,2013-02-03 14:30:00,
2013-02-03 09:00:00,35.6,19.4,30.20,North,0,4.5,4.5,51,0.00,,,0.00,WUHU216HW,2013-02-03 15:00:00,
2013-02-03 09:30:00,35.8,16.5,30.20,NNW,338,9.2,9.2,45,0.00,,,0.00,WUHU216HW,2013-02-03 15:30:00,
2013-02-03 10:00:00,36.7,17.3,30.21,NW,315,7.2,7.2,45,0.00,,,0.00,WUHU216HW,2013-02-03 16:00:00,
2013-02-03 10:30:00,37.3,16.2,30.20,NNE,23,6.7,6.7,42,0.00,,,0.00,WUHU216HW,2013-02-03 16:30:00,
2013-02-03 11:00:00,38.0,15.1,30.20,NNW,338,4.0,4.0,39,0.00,,,0.00,WUHU216HW,2013-02-03 17:00:00,
2013-02-03 11:30:00,39.2,16.9,30.18,NNE,23,4.5,4.5,40,0.00,,,0.00,WUHU216HW,2013-02-03 17:30:00,
2013-02-03 12:00:00,40.1,16.5,30.17,North,0,1.8,1.8,38,0.00,,,0.00,WUHU216HW,2013-02-03 18:00:00,
2013-02-03 12:30:00,41.6,17.1,30.16,WNW,293,1.8,1.8,37,0.00,,,0.00,WUHU216HW,2013-02-03 18:30:00,